This is the latest recevied weather packets stored in our database for station/object WA0LM. If no packets are shown the sender has not sent any weather packets the latest 10 day(s).
| Time | Temp. | Humidity | Pressure | Rain* | Wind** | Luminosity | Snow |
|---|---|---|---|---|---|---|---|
| 1777839714 | 17.78° C | 35% | 1004.5 hPa | 0 mm | - | 668 W/m² | - |
| 1777839412 | 17.78° C | 39% | 1004.6 hPa | 0 mm | - | 646 W/m² | - |
| 1777839109 | 17.78° C | 35% | 1004.6 hPa | 0 mm | - | 692 W/m² | - |
| 1777838805 | 17.78° C | 37% | 1004.7 hPa | 0 mm | - | 696 W/m² | - |
| 1777838501 | 17.78° C | 37% | 1004.7 hPa | 0 mm | - | 699 W/m² | - |
| 1777838199 | 17.78° C | 34% | 1004.8 hPa | 0 mm | - | 710 W/m² | - |
| 1777837896 | 17.78° C | 37% | 1004.8 hPa | 0 mm | - | 715 W/m² | - |
| 1777837593 | 17.78° C | 36% | 1005 hPa | 0 mm | - | 722 W/m² | - |
| 1777837288 | 17.22° C | 43% | 1004.9 hPa | 0 mm | - | 729 W/m² | - |
| 1777836985 | 17.22° C | 33% | 1004.9 hPa | 0 mm | - | 737 W/m² | - |
| 1777836680 | 17.78° C | 37% | 1005 hPa | 0 mm | - | 565 W/m² | - |
| 1777836376 | 17.22° C | 34% | 1005.1 hPa | 0 mm | - | 539 W/m² | - |
| 1777836072 | 16.67° C | 37% | 1005.2 hPa | 0 mm | - | 700 W/m² | - |
| 1777835769 | 17.22° C | 38% | 1005.1 hPa | 0 mm | - | 761 W/m² | - |
| 1777835466 | 17.22° C | 38% | 1005.2 hPa | 0 mm | - | 732 W/m² | - |
| 1777835163 | 16.67° C | 40% | 1005.5 hPa | 0 mm | - | 496 W/m² | - |
| 1777834860 | 16.67° C | 37% | 1005.4 hPa | 0 mm | - | 430 W/m² | - |
| 1777834557 | 16.67° C | 37% | 1005.3 hPa | 0 mm | - | 619 W/m² | - |
| 1777834256 | 16.67° C | 36% | 1005.4 hPa | 0 mm | - | 461 W/m² | - |
| 1777833952 | 16.67° C | 39% | 1005.6 hPa | 0 mm | - | 640 W/m² | - |
| 1777833649 | 16.67° C | 37% | 1005.6 hPa | 0 mm | - | 662 W/m² | - |
| 1777833346 | 16.67° C | 41% | 1005.8 hPa | 0 mm | - | 470 W/m² | - |
| 1777833043 | 16.67° C | 34% | 1005.9 hPa | 0 mm | - | 714 W/m² | - |
| 1777832741 | 16.11° C | 41% | 1006.1 hPa | 0 mm | - | 774 W/m² | - |
| 1777832439 | 16.11° C | 35% | 1006 hPa | 0 mm | - | 793 W/m² | - |
* Rain latest hour (hover to see other rain measurements)
** Current wind speed in m/s (hover to see current wind gust speed)